Location: Newark
(44.3681°N, 100.3364°W)
Time: 13:50:15
(UTC+00:00)

deb Explorer IX - Pass Details

Date: 19 February 2020
Orbit: 547 x 1100 km, 38.8° (Epoch: 06 April)

Event Time Altitude Azimuth Distance (km) Brightness Sun altitude
Rises 22:09:01 0° 267° (W) 2,730 ? 19.2°
Reaches altitude 10° 22:11:25 10° 255° (WSW) 1,867 ? 18.9°
Maximum altitude 22:15:03 28° 196° (SSW) 1,141 ? 18.4°
Drops below altitude 10° 22:19:02 10° 137° (SE) 2,049 ? 17.8°
Sets 22:21:48 0° 126° (SE) 3,052 ? 17.4°
